#timestamp,LO_Frequency,Hit,StdDev 
1680199215.2,286047002.7,N
1680199235.0,286047000.6,N
1680199235.9,286047000.6,N
1680199255.8,286047001.0,N
1680199275.6,286046998.3,N
1680199295.5,286047000.8,N
1680199315.3,286047000.4,N
1680199335.1,286047001.2,N
1680199355.9,286046996.8,N
1680199375.7,286046998.8,N
1680199395.6,286046998.5,N
1680199415.4,286046996.5,N
1680199435.2,286046999.3,N
1680199455.1,286047000.7,N
1680199456.0,286047000.7,N
1680199475.8,286046998.8,N
1680199495.6,286046999.5,N
1680199515.5,286046996.7,N
1680199535.3,286047001.0,N
1680199555.2,286046998.2,N
1680199575.9,286046998.5,N
1680199595.7,286046998.7,N
1680199615.6,286046999.1,N
1680199635.4,286046999.3,N
1680199655.2,286046995.0,Y
1680199675.1,286046997.3,P
1680199676.0,286047011.9,P
1680199695.8,286046996.6,N
1680199715.7,286046999.6,N
1680199735.5,286046999.4,N
1680199755.3,286046997.0,N
1680199775.2,286046999.4,N
1680199795.0,286046999.4,N
1680199795.9,286046999.4,N
1680199815.8,286046997.3,N
1680199835.6,286046997.7,N
1680199855.4,286046996.6,N
1680199875.3,286046999.6,N
1680199895.1,286046999.6,N
1680199915.8,286046999.3,N
1680199935.7,286046997.1,N
1680199955.5,286046996.8,N
1680199975.4,286046997.4,N
1680199995.2,286046997.8,N
1680200015.0,286047000.7,N
1680200015.9,286047000.7,N
1680200035.8,286047000.8,N
1680200055.6,286046998.9,N
1680200075.5,286046997.0,N
1680200095.3,286046999.2,N
1680200115.1,286046996.7,N
1680200135.9,286046995.3,N
1680200155.7,286046996.6,N
1680200175.5,286046997.6,N
1680200195.4,286046996.7,N
1680200215.2,286046996.1,N
1680200235.1,286046997.8,N
1680200236.0,286046997.8,N
1680200255.8,286046998.2,N
1680200275.6,286046996.8,N
1680200295.5,286046997.2,N
1680200315.3,286046998.4,N
1680200335.1,286046996.9,N
1680200355.9,286046996.6,N
1680200375.7,286046999.0,N
1680200395.6,286046997.5,N
1680200415.4,286046997.0,N
1680200435.2,286046994.9,Y
1680200455.1,286046998.6,P
1680200456.0,286046998.6,P
1680200475.8,286046998.1,P
1680200495.7,286046998.6,Y
1680200515.5,286047001.7,P
1680200535.3,286047002.3,N
1680200555.2,286047001.0,N
1680200575.0,286047002.5,N
1680200575.9,286047002.5,N
1680200595.7,286047000.4,N
1680200615.6,286046998.2,N
1680200635.4,286046998.7,N
1680200655.3,286047002.3,N
1680200675.1,286046998.8,N
1680200695.8,286046996.5,N
1680200715.7,286046998.7,N
1680200735.5,286047000.7,N
1680200755.4,286046998.5,N
1680200775.2,286046996.5,N
1680200795.0,286046996.7,N
1680200795.9,286046996.7,N
1680200815.8,286046998.6,N
1680200835.6,286046998.5,N
1680200855.4,286047001.0,N
1680200875.3,286046998.8,N
1680200895.1,286046999.8,N
1680200915.9,286046998.1,N
1680200935.7,286047000.4,N
1680200955.5,286046996.5,N
1680200975.4,286046999.3,N
1680200995.2,286046999.1,N
1680201015.1,286046997.3,N
1680201016.0,286046997.3,N
1680201035.8,286046996.7,N
1680201055.6,286047000.8,N
1680201075.5,286046997.0,N
1680201095.3,286046999.6,N
1680201115.2,286046996.7,N
1680201135.9,286046999.3,N
1680201155.7,286047001.2,N
1680201175.6,286046998.8,N
1680201195.4,286046999.6,N
1680201215.2,286046998.1,N
1680201235.1,286047000.0,N
1680201236.0,286047000.0,N
1680201255.8,286047001.2,N
1680201275.7,286047001.0,N
1680201295.5,286047000.9,N
1680201315.3,286047000.7,N
1680201335.2,286046998.9,N
1680201355.0,286047000.5,N
1680201355.9,286047000.5,N
1680201375.8,286046999.9,N
1680201395.6,286047001.2,N
1680201415.4,286046998.8,N
1680201435.3,286046998.6,N
1680201455.1,286046998.6,N
1680201475.9,286046999.4,N
1680201495.7,286046999.5,N
1680201515.5,286046998.4,N
1680201535.4,286046999.0,N
1680201555.2,286046998.9,N
1680201575.0,286046998.3,N
1680201575.9,286046998.3,N
1680201595.8,286046998.7,N
1680201615.6,286046998.8,N
1680201635.5,286046998.3,N
1680201655.3,286046999.5,N
1680201675.1,286046999.1,N
1680201695.9,286046998.5,N
1680201715.7,286046998.6,N
1680201735.6,286047001.1,N
1680201755.4,286046999.2,N
1680201775.2,286046996.9,Y
1680201795.1,286046998.9,P
1680201796.0,286046998.9,P
1680201815.8,286046981.1,P
1680201835.6,286046981.3,N
1680201855.5,286046981.4,N
1680201875.3,286046981.0,N
1680201895.2,286046980.6,N
1680201915.0,286046980.6,N
1680201915.9,286046980.6,N
1680201935.7,286046983.5,N
1680201955.6,286046981.6,N
1680201975.4,286046982.0,N
1680201995.3,286046981.5,N
1680202015.1,286046981.7,N
1680202016.0,286046981.7,N
1680202035.8,286046981.2,N
1680202055.7,286046980.1,N
1680202075.5,286046979.6,Y
1680202095.4,286046995.8,P
1680202115.2,286046997.7,N
1680202135.0,286046999.4,N
1680202135.9,286046999.4,N
1680202155.8,286046998.9,N
1680202175.6,286046998.9,N
1680202195.4,286046999.4,N
1680202215.3,286046999.2,N
1680202235.1,286046998.6,N
1680202255.9,286046999.5,N
1680202275.7,286046998.8,N
1680202295.5,286047001.0,N
1680202315.4,286047000.9,N
1680202335.2,286046998.2,N
1680202355.1,286047000.0,N
1680202356.0,286047000.0,N
1680202375.8,286047000.1,N
1680202395.6,286047000.2,N
1680202415.5,286046998.7,N
1680202435.3,286046998.2,N
1680202455.1,286046999.9,N
1680202475.9,286047000.4,N
1680202495.7,286047002.4,N
1680202515.6,286047001.2,N
1680202535.4,286047000.3,N
1680202555.2,286046998.2,N
1680202575.1,286047000.3,N
1680202576.0,286047000.3,N
1680202595.8,286047001.0,N
1680202615.7,286047001.1,N
1680202635.5,286047001.1,N
1680202655.3,286046998.8,N
1680202675.2,286047000.7,N
1680202695.0,286047002.6,N
1680202695.9,286047002.6,N
1680202715.7,286047000.8,N
1680202735.6,286046998.7,N
1680202755.4,286047001.2,N
1680202775.3,286046999.7,N
1680202795.1,286047000.8,N
1680202796.0,286047000.8,N
